timestamp,wind_dir_avg,wind_spd_avg,wind_spd_max_dir,wind_spd_gust,battery_voltage,lat,long
2023-08-14 00:04:00+00:00,207.0,5.7,213.0,6.85,12.65,47.59359,-54.27349
2023-08-14 00:14:01+00:00,209.0,6.42,214.0,7.45,12.41,47.59359,-54.27349
2023-08-14 00:24:01+00:00,210.0,6.42,212.0,7.28,12.41,47.59359,-54.27349
2023-08-14 00:34:01+00:00,213.0,5.5,215.0,6.15,12.41,47.59359,-54.27349
2023-08-14 00:44:01+00:00,216.0,5.57,215.0,6.13,12.41,47.59359,-54.27349
2023-08-14 00:54:01+00:00,229.0,5.61,228.0,6.21,12.41,47.59359,-54.27349
2023-08-14 01:04:01+00:00,244.0,5.52,242.0,6.58,12.41,47.59359,-54.27349
2023-08-14 01:14:00+00:00,248.0,5.43,247.0,6.22,12.41,47.59359,-54.27349
2023-08-14 01:24:00+00:00,244.0,4.96,244.0,5.57,12.41,47.59359,-54.27349
2023-08-14 01:34:00+00:00,237.0,4.47,242.0,4.92,12.41,47.59359,-54.27349
2023-08-14 01:44:00+00:00,216.0,3.5,226.0,4.73,12.41,47.59359,-54.27349
2023-08-14 01:54:00+00:00,219.0,4.24,228.0,4.84,12.41,47.59359,-54.27349
2023-08-14 02:04:00+00:00,232.0,5.37,232.0,5.97,12.41,47.59359,-54.27349
2023-08-14 02:14:01+00:00,231.0,5.49,233.0,5.99,12.41,47.59359,-54.27349
2023-08-14 02:24:01+00:00,232.0,5.49,237.0,6.55,12.41,47.59359,-54.27349
2023-08-14 02:34:01+00:00,237.0,5.22,237.0,5.75,12.41,47.59359,-54.27349
2023-08-14 02:44:01+00:00,225.0,5.03,229.0,5.93,12.41,47.59359,-54.27349
2023-08-14 02:54:01+00:00,224.0,4.56,225.0,5.6,12.41,47.59359,-54.27349
2023-08-14 03:04:01+00:00,218.0,4.41,221.0,4.82,12.41,47.59359,-54.27349
2023-08-14 03:14:01+00:00,229.0,4.78,232.0,5.56,12.41,47.59359,-54.27349
2023-08-14 03:24:01+00:00,227.0,5.19,229.0,5.86,12.41,47.59359,-54.27349
2023-08-14 03:34:01+00:00,229.0,4.48,232.0,5.29,12.41,47.59359,-54.27349
2023-08-14 03:44:01+00:00,228.0,4.46,229.0,5.36,12.41,47.59359,-54.27349
2023-08-14 03:54:01+00:00,225.0,2.82,212.0,3.64,12.41,47.59359,-54.27349
2023-08-14 04:04:01+00:00,230.0,2.0,219.0,2.65,12.41,47.59359,-54.27349
2023-08-14 04:14:00+00:00,224.0,3.68,227.0,4.38,12.41,47.59359,-54.27349
2023-08-14 04:24:00+00:00,217.0,4.25,219.0,4.69,12.41,47.59359,-54.27349
2023-08-14 04:34:00+00:00,230.0,2.93,230.0,3.41,12.41,47.59359,-54.27349
2023-08-14 04:44:00+00:00,210.0,1.84,212.0,2.18,12.41,47.59359,-54.27349
2023-08-14 04:54:00+00:00,224.0,2.19,229.0,2.65,12.41,47.59359,-54.27349
2023-08-14 05:04:00+00:00,237.0,2.51,232.0,2.96,12.41,47.59359,-54.27349
2023-08-14 05:14:00+00:00,226.0,4.74,227.0,5.2,12.41,47.59359,-54.27349
2023-08-14 05:24:00+00:00,230.0,4.32,230.0,4.9,12.41,47.59359,-54.27349
2023-08-14 05:34:00+00:00,233.0,4.31,235.0,4.73,12.41,47.59359,-54.27349
2023-08-14 05:44:00+00:00,224.0,2.66,224.0,3.15,12.41,47.59359,-54.27349
2023-08-14 05:54:00+00:00,218.0,2.27,212.0,2.57,12.41,47.59359,-54.27349
2023-08-14 06:04:00+00:00,227.0,2.42,224.0,2.77,12.41,47.59359,-54.27349
2023-08-14 06:14:00+00:00,239.0,3.78,239.0,4.18,12.33,47.59359,-54.27349
2023-08-14 06:24:00+00:00,242.0,2.52,241.0,3.1,12.33,47.59359,-54.27349
2023-08-14 06:34:00+00:00,232.0,2.88,235.0,3.16,12.33,47.59359,-54.27349
2023-08-14 06:44:00+00:00,225.0,2.33,228.0,2.68,12.33,47.59359,-54.27349
2023-08-14 06:54:00+00:00,213.0,1.93,222.0,2.15,12.33,47.59359,-54.27349
2023-08-14 07:04:00+00:00,225.0,3.18,224.0,3.73,12.33,47.59359,-54.27349
2023-08-14 07:14:00+00:00,239.0,2.55,239.0,3.13,12.33,47.59359,-54.27349
2023-08-14 07:24:00+00:00,253.0,3.25,259.0,3.78,12.33,47.59359,-54.27349
2023-08-14 07:34:00+00:00,240.0,3.05,238.0,3.6,12.33,47.59359,-54.27349
2023-08-14 07:44:00+00:00,223.0,3.64,214.0,4.24,12.33,47.59359,-54.27349
2023-08-14 07:54:00+00:00,221.0,2.34,218.0,2.83,12.33,47.59359,-54.27349
2023-08-14 08:04:00+00:00,253.0,2.2,251.0,2.45,12.33,47.59359,-54.27349
2023-08-14 08:14:00+00:00,257.0,3.07,255.0,3.31,12.25,47.59359,-54.27349
2023-08-14 08:24:00+00:00,243.0,1.61,244.0,2.07,12.25,47.59359,-54.27349
2023-08-14 08:34:00+00:00,263.0,2.22,256.0,2.52,12.25,47.59359,-54.27349
2023-08-14 08:44:00+00:00,240.0,2.69,238.0,2.88,12.25,47.59359,-54.27349
2023-08-14 08:54:00+00:00,253.0,2.38,255.0,2.67,12.25,47.59359,-54.27349
2023-08-14 09:04:00+00:00,259.0,1.92,265.0,2.16,12.25,47.59359,-54.27349
2023-08-14 09:14:01+00:00,273.0,2.35,273.0,2.6,12.33,47.59359,-54.27349
2023-08-14 09:24:01+00:00,273.0,1.91,274.0,2.15,12.33,47.59359,-54.27349
2023-08-14 09:34:01+00:00,300.0,1.48,297.0,1.78,12.33,47.59359,-54.27349
2023-08-14 09:44:01+00:00,298.0,1.44,301.0,1.58,12.33,47.59359,-54.27349
2023-08-14 09:54:01+00:00,272.0,1.6,278.0,1.88,12.33,47.59359,-54.27349
2023-08-14 10:04:01+00:00,304.0,1.13,303.0,1.42,12.33,47.59359,-54.27349
2023-08-14 10:14:00+00:00,1.0,0.32,0.0,0.52,12.81,47.59359,-54.27349
2023-08-14 10:24:00+00:00,90.0,0.1,103.0,0.2,12.81,47.59359,-54.27349
2023-08-14 10:34:00+00:00,230.0,1.16,228.0,1.36,12.81,47.59359,-54.27349
2023-08-14 10:44:00+00:00,259.0,1.07,260.0,1.26,12.81,47.59359,-54.27349
2023-08-14 10:54:00+00:00,275.0,1.25,250.0,1.67,12.81,47.59359,-54.27349
2023-08-14 11:04:00+00:00,246.0,0.77,239.0,1.07,12.81,47.59359,-54.27349
2023-08-14 11:14:00+00:00,247.0,1.2,243.0,1.51,13.37,47.59359,-54.27349
2023-08-14 11:24:00+00:00,281.0,0.68,249.0,0.89,13.37,47.59359,-54.27349
2023-08-14 11:34:00+00:00,243.0,1.72,234.0,2.12,13.37,47.59359,-54.27349
2023-08-14 11:44:00+00:00,224.0,1.84,225.0,2.05,13.37,47.59359,-54.27349
2023-08-14 11:54:00+00:00,256.0,0.17,279.0,0.29,13.37,47.59359,-54.27349
2023-08-14 12:04:00+00:00,204.0,1.37,205.0,1.56,13.37,47.59359,-54.27349
2023-08-14 12:14:01+00:00,207.0,0.43,210.0,0.64,13.6,47.59359,-54.27349
2023-08-14 12:24:01+00:00,200.0,0.54,201.0,0.76,13.6,47.59359,-54.27349
2023-08-14 12:34:01+00:00,338.0,1.1,330.0,1.33,13.6,47.59359,-54.27349
2023-08-14 12:44:01+00:00,311.0,0.85,315.0,1.05,13.6,47.59359,-54.27349
2023-08-14 12:54:01+00:00,222.0,0.95,226.0,1.11,13.6,47.59359,-54.27349
2023-08-14 13:04:01+00:00,243.0,1.27,243.0,1.47,13.6,47.59359,-54.27349
2023-08-14 13:14:01+00:00,255.0,1.99,258.0,2.17,13.68,47.59359,-54.27349
2023-08-14 13:24:01+00:00,264.0,1.55,263.0,1.8,13.68,47.59359,-54.27349
2023-08-14 13:34:01+00:00,242.0,2.05,245.0,2.35,13.68,47.59359,-54.27349
2023-08-14 13:44:01+00:00,235.0,2.01,240.0,2.3,13.68,47.59359,-54.27349
2023-08-14 13:54:01+00:00,220.0,2.12,217.0,2.44,13.68,47.59359,-54.27349
2023-08-14 14:04:01+00:00,239.0,2.43,242.0,2.68,13.68,47.59359,-54.27349
2023-08-14 14:14:00+00:00,220.0,2.72,220.0,3.02,13.6,47.59359,-54.27349
2023-08-14 14:24:00+00:00,224.0,3.17,220.0,3.5,13.6,47.59359,-54.27349
2023-08-14 14:34:00+00:00,212.0,2.86,208.0,3.27,13.6,47.59359,-54.27349
2023-08-14 14:44:00+00:00,203.0,2.58,201.0,2.8,13.6,47.59359,-54.27349
2023-08-14 14:54:00+00:00,199.0,3.28,198.0,3.69,13.6,47.59359,-54.27349
2023-08-14 15:04:00+00:00,190.0,2.94,192.0,3.1,13.6,47.59359,-54.27349
2023-08-14 15:14:00+00:00,192.0,2.78,195.0,3.01,14.16,47.59359,-54.27349
2023-08-14 15:24:00+00:00,194.0,2.93,194.0,3.22,14.16,47.59359,-54.27349
2023-08-14 15:34:00+00:00,196.0,3.07,195.0,3.3,14.16,47.59359,-54.27349
2023-08-14 15:44:00+00:00,204.0,2.13,200.0,2.4,14.16,47.59359,-54.27349
2023-08-14 15:54:00+00:00,214.0,1.72,214.0,1.94,14.16,47.59359,-54.27349
2023-08-14 16:04:00+00:00,210.0,1.37,208.0,1.63,14.16,47.59359,-54.27349
2023-08-14 16:14:00+00:00,214.0,1.86,213.0,2.04,14.32,47.59359,-54.27349
2023-08-14 16:24:00+00:00,219.0,1.38,222.0,1.53,14.32,47.59359,-54.27349
2023-08-14 16:34:00+00:00,227.0,1.32,234.0,1.47,14.32,47.59359,-54.27349
2023-08-14 16:44:00+00:00,247.0,2.73,247.0,2.88,14.32,47.59359,-54.27349
2023-08-14 16:54:00+00:00,246.0,1.65,250.0,1.87,14.32,47.59359,-54.27349
2023-08-14 17:04:00+00:00,229.0,2.19,231.0,2.4,14.32,47.59359,-54.27349
2023-08-14 17:14:00+00:00,235.0,2.65,238.0,2.9,13.68,47.59359,-54.27349
2023-08-14 17:24:00+00:00,242.0,1.88,241.0,2.03,13.68,47.59359,-54.27349
2023-08-14 17:34:00+00:00,230.0,1.09,230.0,1.27,13.68,47.59359,-54.27349
2023-08-14 17:44:00+00:00,79.0,0.32,85.0,0.42,13.68,47.59359,-54.27349
2023-08-14 17:54:00+00:00,321.0,0.47,317.0,0.6,13.68,47.59359,-54.27349
2023-08-14 18:04:00+00:00,290.0,0.31,282.0,0.45,13.68,47.59359,-54.27349
2023-08-14 18:14:00+00:00,212.0,0.84,210.0,1.15,13.76,47.59359,-54.27349
2023-08-14 18:24:00+00:00,195.0,1.18,196.0,1.43,13.76,47.59359,-54.27349
2023-08-14 18:34:00+00:00,170.0,0.93,172.0,1.08,13.76,47.59359,-54.27349
2023-08-14 18:44:00+00:00,133.0,0.49,145.0,0.97,13.76,47.59359,-54.27349
2023-08-14 18:54:00+00:00,101.0,0.83,110.0,1.27,13.76,47.59359,-54.27349
2023-08-14 19:04:00+00:00,112.0,0.97,129.0,1.6,13.76,47.59359,-54.27349
2023-08-14 19:14:00+00:00,85.0,1.07,95.0,1.51,13.68,47.59359,-54.27349
2023-08-14 19:24:00+00:00,193.0,0.25,194.0,0.37,13.68,47.59359,-54.27349
2023-08-14 19:34:00+00:00,20.0,1.31,31.0,1.54,13.68,47.59359,-54.27349
2023-08-14 19:44:00+00:00,325.0,0.99,323.0,1.18,13.68,47.59359,-54.27349
2023-08-14 19:54:00+00:00,320.0,1.19,322.0,1.35,13.68,47.59359,-54.27349
2023-08-14 20:04:00+00:00,353.0,1.31,355.0,1.45,13.68,47.59359,-54.27349
2023-08-14 20:14:00+00:00,358.0,1.25,353.0,1.4,13.53,47.59359,-54.27349
2023-08-14 20:24:00+00:00,19.0,1.6,18.0,1.78,13.53,47.59359,-54.27349
2023-08-14 20:34:00+00:00,29.0,2.31,31.0,2.59,13.53,47.59359,-54.27349
2023-08-14 20:44:00+00:00,51.0,2.35,49.0,2.68,13.53,47.59359,-54.27349
2023-08-14 20:54:00+00:00,58.0,2.71,60.0,3.02,13.53,47.59359,-54.27349
2023-08-14 21:04:00+00:00,74.0,2.41,50.0,3.72,13.53,47.59359,-54.27349
2023-08-14 21:14:00+00:00,83.0,3.04,72.0,4.7,13.44,47.59359,-54.27349
2023-08-14 21:24:00+00:00,80.0,2.63,69.0,3.86,13.44,47.59359,-54.27349
2023-08-14 21:34:00+00:00,95.0,2.21,99.0,3.52,13.44,47.59359,-54.27349
2023-08-14 21:44:00+00:00,76.0,2.25,67.0,3.83,13.44,47.59359,-54.27349
2023-08-14 21:54:00+00:00,87.0,2.57,74.0,3.89,13.44,47.59359,-54.27349
2023-08-14 22:04:00+00:00,83.0,1.67,72.0,2.49,13.44,47.59359,-54.27349
2023-08-14 22:14:00+00:00,69.0,1.53,48.0,2.16,13.05,47.59359,-54.27349
2023-08-14 22:24:00+00:00,89.0,1.34,70.0,1.92,13.05,47.59359,-54.27349
2023-08-14 22:34:00+00:00,101.0,1.68,104.0,2.59,13.05,47.59359,-54.27349
2023-08-14 22:44:00+00:00,83.0,1.75,86.0,3.03,13.05,47.59359,-54.27349
2023-08-14 22:54:00+00:00,80.0,3.23,76.0,4.96,13.05,47.59359,-54.27349
2023-08-14 23:04:00+00:00,63.0,3.51,59.0,4.18,13.05,47.59359,-54.27349
2023-08-14 23:14:00+00:00,63.0,4.73,62.0,5.32,12.49,47.59359,-54.27349
2023-08-14 23:24:00+00:00,70.0,5.0,67.0,5.78,12.49,47.59359,-54.27349
2023-08-14 23:34:00+00:00,70.0,4.54,73.0,5.12,12.49,47.59359,-54.27349
2023-08-14 23:44:00+00:00,68.0,4.56,67.0,5.48,12.49,47.59359,-54.27349
2023-08-14 23:54:00+00:00,64.0,5.64,59.0,6.27,12.49,47.59359,-54.27349
